This is the latest recevied weather packets stored in our database for station/object K0SDS. If no packets are shown the sender has not sent any weather packets the latest 10 day(s).
| Time | Temp. | Humidity | Pressure | Rain* | Wind** | Luminosity | Snow |
|---|---|---|---|---|---|---|---|
| 1777821681 | 19.44° C | 51% | 1013.1 hPa | 0 mm | - | 658 W/m² | - |
| 1777821379 | 18.89° C | 53% | 1012.9 hPa | 0 mm | - | 624 W/m² | - |
| 1777821075 | 18.89° C | 53% | 1013.2 hPa | 0 mm | - | 623 W/m² | - |
| 1777820772 | 18.89° C | 52% | 1013.6 hPa | 0 mm | - | 583 W/m² | - |
| 1777820468 | 18.33° C | 52% | 1013.3 hPa | 0 mm | - | 548 W/m² | - |
| 1777820165 | 18.33° C | 55% | 1013.1 hPa | 0 mm | - | 518 W/m² | - |
| 1777819863 | 18.33° C | 54% | 1013.1 hPa | 0 mm | - | 500 W/m² | - |
| 1777819560 | 17.78° C | 53% | 1013.2 hPa | 0 mm | - | 457 W/m² | - |
| 1777819257 | 17.78° C | 54% | 1012.9 hPa | 0 mm | - | 418 W/m² | - |
| 1777818954 | 17.78° C | 52% | 1013.4 hPa | 0 mm | - | 392 W/m² | - |
| 1777818650 | 17.22° C | 53% | 1013.2 hPa | 0 mm | - | 366 W/m² | - |
| 1777818348 | 17.22° C | 53% | 1013.4 hPa | 0 mm | - | 336 W/m² | - |
| 1777818044 | 17.22° C | 54% | 1013.4 hPa | 0 mm | - | 313 W/m² | - |
| 1777817741 | 16.67° C | 54% | 1013.7 hPa | 0 mm | - | 308 W/m² | - |
| 1777817439 | 16.67° C | 55% | 1013.5 hPa | 0 mm | - | 293 W/m² | - |
| 1777817134 | 16.67° C | 53% | 1013.6 hPa | 0 mm | - | 286 W/m² | - |
| 1777816832 | 16.67° C | 53% | 1013.6 hPa | 0 mm | - | 245 W/m² | - |
| 1777816529 | 16.11° C | 56% | 1014 hPa | 0 mm | - | 231 W/m² | - |
| 1777816226 | 15.56° C | 54% | 1013.6 hPa | 0 mm | - | 228 W/m² | - |
| 1777815924 | 15.56° C | 55% | 1014 hPa | 0 mm | - | 221 W/m² | - |
| 1777815621 | 15.56° C | 55% | 1013.8 hPa | 0 mm | - | 203 W/m² | - |
| 1777815318 | 15.56° C | 56% | 1013.8 hPa | 0 mm | - | 194 W/m² | - |
| 1777815015 | 15° C | 56% | 1013.8 hPa | 0 mm | - | 177 W/m² | - |
| 1777814711 | 15° C | 56% | 1013.8 hPa | 0 mm | - | 167 W/m² | - |
| 1777814408 | 14.44° C | 57% | 1014.1 hPa | 0 mm | - | 154 W/m² | - |
* Rain latest hour (hover to see other rain measurements)
** Current wind speed in m/s (hover to see current wind gust speed)